FW0960 Weather Reports


time (UTC)temp
F
wind
direction
speed
knots
gust
knots
rain 1hr
in
rain 24hr
in
rain mn
in
humidity
%
barometer
mb
20260504150834 67 355 0.0 1.7 0.00 0.00 0.00 53 1015.3
20260504141325 63 182 0.0 0.9 0.00 0.00 0.00 63 1015.6
20260504140320 63 135 0.0 1.7 0.00 0.00 0.00 62 1016.0
20260504130809 60 144 0.0 0.9 0.00 0.00 0.00 69 1016.5
20260504130307 59 155 0.0 0.9 0.00 0.00 0.00 69 1016.4
20260504120301 54 140 0.0 0.9 0.00 0.00 0.00 79 1016.9
20260504100236 52 140 0.0 0.0 0.00 0.00 0.00 82 1017.2
20260504081706 51 144 0.0 1.7 0.00 0.00 0.00 80 1017.5
20260504081206 51 140 0.0 1.7 0.00 0.00 0.00 80 1017.5
20260504080705 51 166 0.0 0.9 0.00 0.00 0.00 80 1017.5
20260504080207 51 171 0.0 0.9 0.00 0.00 0.00 80 1017.6
20260504070154 50 181 0.0 3.5 0.00 0.00 0.00 74 1017.6
20260504060147 49 165 0.0 0.9 0.00 0.00 0.00 69 1017.4
20260504050646 49 163 0.0 0.9 0.00 0.00 0.00 69 1017.5
20260504050140 48 163 0.0 0.9 0.00 0.00 0.00 68 1017.4
20260504045640 48 163 0.0 0.0 0.00 0.00 0.00 68 1017.5
20260504045136 48 163 0.0 0.0 0.00 0.00 0.00 68 1017.3
20260504044637 48 163 0.0 0.0 0.00 0.00 0.00 68 1017.2
20260504044133 48 163 0.0 0.0 0.00 0.00 0.00 68 1017.3
20260504043633 48 163 0.0 0.0 0.00 0.00 0.00 68 1017.2
20260504043131 48 163 0.0 0.0 0.00 0.00 0.00 68 1017.2
20260504042133 48 163 0.0 0.0 0.00 0.00 0.00 68 1017.0
20260504041634 48 163 0.0 0.0 0.00 0.00 0.00 68 1017.0
20260504041136 48 163 0.0 0.0 0.00 0.00 0.00 68 1016.9
20260504040632 48 163 0.0 0.0 0.00 0.00 0.00 68 1016.8
20260504040130 47 163 0.0 0.0 0.00 0.00 0.00 68 1016.8
20260504035628 47 163 0.0 0.0 0.00 0.00 0.00 69 1016.7
20260504035119 47 163 0.0 0.0 0.00 0.00 0.00 69 1016.7
20260504034621 48 163 0.0 0.0 0.00 0.00 0.00 70 1016.7
20260504034125 48 163 0.0 0.0 0.00 0.00 0.00 69 1016.7
20260504033117 48 163 0.0 0.0 0.00 0.00 0.00 68 1016.6
20260504032617 48 163 0.0 0.0 0.00 0.00 0.00 69 1016.8
20260504032110 48 163 0.0 0.0 0.00 0.00 0.00 70 1016.7
20260504031609 48 163 0.0 0.0 0.00 0.00 0.00 72 1016.7
20260504031107 48 163 0.0 0.0 0.00 0.00 0.00 71 1016.7
20260504030610 48 163 0.0 0.0 0.00 0.00 0.00 69 1016.7
20260504030134 48 163 0.0 0.0 0.00 0.00 0.00 69 1016.7
20260504025110 49 163 0.0 0.0 0.00 0.00 0.00 68 1016.7
20260504024605 49 163 0.0 0.0 0.00 0.00 0.00 68 1016.8
20260504024101 49 163 0.0 0.0 0.00 0.00 0.00 69 1016.8
20260504022604 49 163 0.0 0.0 0.00 0.00 0.00 65 1016.7
20260504022105 49 163 0.0 0.0 0.00 0.00 0.00 64 1016.7
20260504021105 50 163 0.0 0.0 0.00 0.00 0.00 66 1016.7
20260504020603 50 163 0.0 0.0 0.00 0.00 0.00 65 1016.7
20260504020050 50 163 0.0 0.0 0.00 0.00 0.00 63 1016.7
20260504015549 50 163 0.0 0.0 0.00 0.00 0.00 65 1016.6
20260504014537 50 163 0.0 0.0 0.00 0.00 0.00 65 1016.6
20260504013535 50 163 0.0 0.0 0.00 0.00 0.00 63 1016.5
20260504013031 51 163 0.0 0.0 0.00 0.00 0.00 63 1016.4
20260504012553 51 163 0.0 0.0 0.00 0.00 0.00 63 1016.4
20260504011521 51 163 0.0 0.0 0.00 0.00 0.00 59 1016.3
20260504010527 52 163 0.0 0.0 0.00 0.00 0.00 60 1016.2
20260504010024 52 163 0.0 0.0 0.00 0.00 0.00 59 1016.2
20260504005519 52 163 0.0 0.0 0.00 0.00 0.00 58 1016.1
20260504005017 53 163 0.0 0.0 0.00 0.00 0.00 58 1016.2
20260504004515 53 163 0.0 0.0 0.00 0.00 0.00 56 1016.1
20260504004025 54 163 0.0 0.0 0.00 0.00 0.00 54 1016.0
20260504003512 54 163 0.0 0.0 0.00 0.00 0.00 54 1016.0
20260504002513 55 163 0.0 0.0 0.00 0.00 0.00 52 1015.7
20260504002011 55 163 0.0 0.0 0.00 0.00 0.00 50 1015.7
20260504001510 55 163 0.0 0.0 0.00 0.00 0.00 50 1015.6
20260504001006 56 163 0.0 0.0 0.00 0.00 0.00 49 1015.4
20260504000513 56 163 0.0 0.0 0.00 0.00 0.00 49 1015.5
20260503235503 57 163 0.0 0.0 0.00 0.00 0.00 48 1015.5
20260503235020 57 163 0.0 0.9 0.00 0.00 0.00 46 1015.4
20260503234010 58 163 0.0 0.9 0.00 0.00 0.00 45 1015.4
20260503233507 58 163 0.0 0.9 0.00 0.00 0.00 45 1015.3
20260503233008 58 163 0.0 0.9 0.00 0.00 0.00 44 1015.3
20260503232010 58 213 0.0 1.7 0.00 0.00 0.00 44 1015.4
20260503231505 58 207 0.0 1.7 0.00 0.00 0.00 43 1015.3
20260503231007 58 168 0.0 0.9 0.00 0.00 0.00 45 1015.2
20260503230503 58 200 0.9 2.6 0.00 0.00 0.00 43 1015.1
20260503230003 58 202 0.9 3.5 0.00 0.00 0.00 44 1015.1
20260503225507 58 113 0.9 3.5 0.00 0.00 0.00 41 1015.0
20260503225003 58 196 0.9 5.2 0.00 0.00 0.00 43 1015.2
20260503224503 59 153 0.9 5.2 0.00 0.00 0.00 41 1015.2
20260503223505 59 216 0.9 4.3 0.00 0.00 0.00 41 1015.2
20260503223010 59 136 0.9 4.3 0.00 0.00 0.00 41 1015.1
20260503222502 59 157 0.9 4.3 0.00 0.00 0.00 43 1015.0
20260503221004 59 185 1.7 7.8 0.00 0.00 0.00 41 1015.1
20260503220506 59 152 0.9 4.3 0.00 0.00 0.00 42 1015.1
20260503220003 59 140 0.9 6.1 0.00 0.00 0.00 42 1015.2
20260503215501 59 198 0.9 6.1 0.00 0.00 0.00 43 1015.2
20260503214504 59 150 0.9 7.8 0.00 0.00 0.00 41 1015.2
20260503214006 59 159 0.9 7.8 0.00 0.00 0.00 41 1015.1
20260503213003 59 159 1.7 5.2 0.00 0.00 0.00 42 1015.2
20260503212506 59 192 1.7 5.2 0.00 0.00 0.00 41 1015.1
20260503211503 59 120 1.7 6.1 0.00 0.00 0.00 42 1015.1
20260503211003 59 206 0.9 6.1 0.00 0.00 0.00 41 1014.9
20260503210502 59 220 0.9 4.3 0.00 0.00 0.00 43 1015.0
20260503210002 59 181 1.7 5.2 0.00 0.00 0.00 45 1014.9
20260503205504 58 189 1.7 6.1 0.00 0.00 0.00 41 1015.0
20260503204959 58 163 1.7 7.0 0.00 0.00 0.00 40 1014.8
20260503204458 59 190 1.7 7.8 0.00 0.00 0.00 42 1015.0
20260503203947 59 155 1.7 7.8 0.00 0.00 0.00 42 1014.7
20260503203448 59 159 1.7 7.0 0.00 0.00 0.00 43 1014.9
20260503202948 59 198 0.9 6.1 0.00 0.00 0.00 42 1014.7
20260503202446 58 97 1.7 6.1 0.00 0.00 0.00 44 1014.8
20260503201949 58 156 1.7 7.8 0.00 0.00 0.00 41 1014.8
20260503201449 58 166 1.7 8.7 0.00 0.00 0.00 41 1014.8
20260503200451 58 153 0.9 6.1 0.00 0.00 0.00 43 1015.1
20260503195948 58 157 1.7 7.0 0.00 0.00 0.00 43 1015.0
20260503195450 58 211 1.7 7.0 0.00 0.00 0.00 42 1015.0
20260503194946 58 207 1.7 6.1 0.00 0.00 0.00 42 1015.0
20260503194451 58 124 1.7 6.1 0.00 0.00 0.00 44 1015.0
20260503193946 58 149 1.7 5.2 0.00 0.00 0.00 44 1015.1
20260503193445 58 205 1.7 7.8 0.00 0.00 0.00 44 1015.1
20260503192949 58 199 1.7 7.8 0.00 0.00 0.00 46 1015.0
20260503191938 58 196 1.7 7.0 0.00 0.00 0.00 43 1015.3
20260503191433 57 124 1.7 6.1 0.00 0.00 0.00 47 1015.3
20260503190927 57 213 1.7 5.2 0.00 0.00 0.00 44 1015.2
20260503190420 57 134 1.7 5.2 0.00 0.00 0.00 43 1015.3
20260503185915 57 148 1.7 6.1 0.00 0.00 0.00 43 1015.4
20260503185405 57 170 0.9 6.1 0.00 0.00 0.00 43 1015.5
20260503184910 57 250 0.9 4.3 0.00 0.00 0.00 47 1015.2
20260503184408 57 115 1.7 6.1 0.00 0.00 0.00 47 1015.5
20260503183409 57 178 1.7 6.1 0.00 0.00 0.00 46 1015.5
20260503182406 57 167 1.7 6.1 0.00 0.00 0.00 45 1015.7
20260503181902 57 165 1.7 6.1 0.00 0.00 0.00 49 1015.6
20260503181405 57 149 0.9 5.2 0.00 0.00 0.00 48 1015.7
20260503180903 56 149 0.9 4.3 0.00 0.00 0.00 48 1015.7
20260503180404 56 157 0.9 4.3 0.00 0.00 0.00 50 1015.5
20260503175903 56 203 1.7 5.2 0.00 0.00 0.00 47 1015.6
20260503174903 55 196 1.7 7.0 0.00 0.00 0.00 48 1015.5
20260503173905 55 188 1.7 7.0 0.00 0.00 0.00 49 1015.5
20260503173403 55 182 1.7 6.1 0.00 0.00 0.00 50 1015.5
20260503172403 55 202 0.9 7.8 0.00 0.00 0.00 49 1015.7
20260503171901 55 158 1.7 5.2 0.00 0.00 0.00 51 1015.6
20260503170907 54 231 1.7 7.0 0.00 0.00 0.00 50 1015.7
20260503170402 54 213 1.7 7.0 0.00 0.00 0.00 52 1015.7